Location: Berkeley
(37.8716°N, 122.2727°W)
Time: 10:08:12
(UTC-07:00)

Envisat - Pass Details

Date: 19 February 2019
Orbit: 764 x 766 km, 98.2° (Epoch: 24 March)

Event Time Altitude Azimuth Distance (km) Brightness Sun altitude
Rises 18:07:31 0° 142° (SE) 3,220 6.0 -3.8°
Reaches altitude 10° 18:09:58 10° 134° (SE) 2,298 5.1 -4.3°
Maximum altitude 18:14:31 34° 70° (ENE) 1,237 3.6 -5.1°
Drops below altitude 10° 18:19:04 10° 6° (N) 2,310 5.3 -6.0°
Sets 18:21:33 0° 358° (N) 3,240 6.2 -6.5°
